Location: Sankt Anna
(58.3452°N, 16.7040°E)
Time: 22:24:29
(UTC+01:00)

Envisat - Visible Passes

Search period start: 16 November 2019 00:00
Search period end: 26 November 2019 00:00
Orbit: 764 x 766 km, 98.1° (Epoch: 16 November)

Date Brightness Start Highest point End Pass type
(mag) Time Alt. Az. Time Alt. Az. Time Alt. Az.
16 Nov 5.9 05:30:07 10° NE 05:33:35 18° E 05:37:02 10° SE visible
16 Nov 3.1 16:52:58 10° SE 16:57:54 54° ENE 17:02:52 10° N visible
16 Nov 4.6 18:32:34 10° SSW 18:37:11 34° W 18:41:50 10° NNW visible
17 Nov 4.3 06:31:36 10° NNE 06:36:31 46° E 06:41:25 10° S visible
17 Nov 3.7 16:16:51 10° ESE 16:21:21 33° ENE 16:25:52 10° N visible
17 Nov 3.5 17:55:09 10° S 18:00:11 61° WSW 18:05:15 10° NNW visible
17 Nov 6.0 19:37:53 10° WSW 19:40:18 13° W 19:42:44 10° NW visible
18 Nov 5.3 05:55:07 10° NNE 05:59:26 27° E 06:03:42 10° SSE visible
18 Nov 2.9 17:18:15 10° SSE 17:23:20 78° ENE 17:28:28 10° NNW visible
18 Nov 5.3 18:58:55 10° SW 19:02:57 23° W 19:07:02 10° NW visible
19 Nov 6.0 05:19:10 10° NE 05:22:08 15° E 05:25:05 10° ESE visible
19 Nov 3.4 06:57:02 10° NNE 07:02:09 70° ESE 07:07:13 10° S visible
19 Nov 3.3 16:41:50 10° SE 16:46:40 46° ENE 16:51:32 10° N visible
19 Nov 4.3 18:21:02 10° SSW 18:25:49 41° W 18:30:39 10° NNW visible
20 Nov 4.6 06:20:23 10° NNE 06:25:10 39° E 06:29:56 10° SSE visible
20 Nov 3.8 16:05:52 10° ESE 16:10:10 29° NE 16:14:30 10° N visible
20 Nov 3.2 17:43:47 10° S 17:48:52 72° WSW 17:53:59 10° NNW visible
20 Nov 5.8 19:25:47 10° WSW 19:28:50 16° W 19:31:55 10° NW visible
21 Nov 5.6 05:44:01 10° NE 05:48:01 23° E 05:52:00 10° SE visible
21 Nov 2.9 17:07:02 10° SSE 17:12:04 67° ENE 17:17:09 10° NNW visible
21 Nov 5.0 18:47:14 10° SSW 18:51:34 27° W 18:55:55 10° NNW visible
22 Nov 6.1 05:08:24 10° NE 05:10:40 13° E 05:12:56 10° ESE visible
22 Nov 3.8 06:45:46 10° NNE 06:50:50 59° ESE 06:55:51 10° S visible
22 Nov 3.4 16:30:45 10° SE 16:35:27 40° ENE 16:40:12 10° N visible
22 Nov 4.0 18:09:33 10° S 18:14:28 48° W 18:19:25 10° NNW visible
22 Nov 6.2 19:54:13 10° W 19:54:49 10° WNW 19:55:24 10° WNW visible
23 Nov 4.9 06:09:11 10° NNE 06:13:48 33° E 06:18:23 10° SSE visible
23 Nov 3.0 17:32:28 10° SSE 17:37:34 84° WSW 17:42:42 10° NNW visible
23 Nov 5.6 19:13:51 10° SW 19:17:24 19° W 19:20:57 10° NW visible
24 Nov 5.8 05:32:57 10° NE 05:36:36 19° E 05:40:13 10° SE visible
24 Nov 3.1 07:11:15 10° NNE 07:16:23 87° ESE 07:21:30 10° SSW visible
24 Nov 3.0 16:55:52 10° SE 17:00:50 57° ENE 17:05:50 10° NNW visible
24 Nov 4.7 18:35:37 10° SSW 18:40:10 32° W 18:44:45 10° NNW visible
25 Nov 6.3 04:58:07 10° ENE 04:59:11 11° ENE 05:00:15 10° E visible
25 Nov 4.1 06:34:31 10° NNE 06:39:30 49° E 06:44:26 10° S visible
25 Nov 3.6 16:19:42 10° ESE 16:24:16 34° ENE 16:28:51 10° N visible
25 Nov 3.6 17:58:08 10° S 18:03:08 57° W 18:08:11 10° NNW visible
25 Nov 6.1 19:41:13 10° WSW 19:43:19 12° W 19:45:26 10° NW visible
